Location: Valley View Observatory
(41.0081°N, 76.5874°W)
Time: 15:17:35
(UTC-04:00)

Daily predictions for brighter satellites

Satellite Brightness Start Highest point End
(mag) Time Altitude Azimuth Time Altitude Azimuth Time Altitude Azimuth
ATLAS 5 CENTAUR R/B 3.1 20:53:01 10° NNW 20:58:41 43° NE 21:04:43 10° ESE
Cosmos 921 Rocket 4.4 21:00:55 10° SW 21:05:02 45° WNW 21:09:14 10° N
Cosmos 2278 Rocket 4.0 21:03:33 10° ESE 21:05:10 11° E 21:06:47 10° E
USA 234 4.4 21:00:58 10° E 21:05:16 18° ESE 21:09:34 10° SSE
Cosmos 1943 4.2 21:01:45 10° NW 21:07:08 46° WSW 21:12:27 10° S
PSLV R/B 3.3 21:06:35 10° W 21:10:02 87° S 21:13:33 10° E
Meteor 2-3 Rocket 3.7 21:07:08 10° S 21:12:46 88° E 21:18:24 10° N
Okean 1-7 3.6 21:09:15 10° NNW 21:13:29 61° W 21:17:44 10° S
Abrixas rocket 2.4 21:10:19 10° WNW 21:13:43 70° SW 21:16:55 11° SE
CZ-4 DEB 3.2 21:13:25 10° S 21:16:33 61° WSW 21:19:43 10° NNW
Cosmos 1844 Rocket 3.4 21:13:27 10° SSE 21:18:25 33° ESE 21:23:23 10° NE
Cosmos 2056 Rocket 3.7 21:13:42 10° S 21:18:39 47° ESE 21:23:34 10° NNE
Cosmos 1371 Rocket 4.0 21:15:17 10° S 21:20:34 69° ESE 21:25:51 10° NNE
Cosmos 1674 Rocket 4.2 21:16:37 10° N 21:20:50 40° ENE 21:24:52 11° SSE
Cosmos 1825 4.1 21:19:37 11° ESE 21:21:22 15° E 21:23:31 10° NE
Cosmos 1340 Rocket 3.0 21:18:56 10° SSW 21:22:54 75° W 21:26:56 10° N
Cosmos 1461 3.6 21:21:15 10° SW 21:25:55 66° WNW 21:30:27 10° NNE
Cosmos 1939 Rocket 2.7 21:22:07 10° SSE 21:25:57 73° ENE 21:29:51 10° N
Atlas Centaur 2 2.9 21:25:57 10° SSW 21:28:04 15° S 21:29:20 13° SSE
Cosmos 1782 3.2 21:25:37 10° N 21:29:30 46° E 21:32:54 13° SSE
Cosmos 2263 Rocket 3.7 21:27:47 10° SW 21:33:08 42° WNW 21:38:29 10° N
CENTAUR R/B 3.2 21:27:55 10° NW 21:35:49 87° WSW 21:43:29 13° SSE
MetOp-A 4.4 21:35:01 13° SE 21:39:37 54° ENE 21:44:50 10° N
Cosmos 2154 Rocket 4.3 21:33:54 10° SSE 21:39:48 47° E 21:45:42 10° NNE
SL-27 R/B 2.9 21:36:40 10° N 21:40:16 50° ENE 21:42:35 19° SE
SL-8 R/B 3.6 21:37:09 10° SW 21:41:57 74° SSE 21:46:46 10° ENE
YAOGAN 6 3.3 21:40:07 19° SE 21:42:10 36° ENE 21:45:26 10° N
Cosmos 1408 3.8 21:40:58 19° SE 21:42:27 24° E 21:45:28 10° NE
NOSS 2-2 (D) 3.4 21:39:51 10° SSW 21:43:56 81° ESE 21:48:40 10° NE
Coronas F rocket 2.4 21:42:34 10° SSW 21:45:07 43° W 21:47:40 10° N
Cosmos 2184 Rocket 4.1 21:40:51 10° S 21:46:59 78° W 21:53:12 10° N
deb Chang Zheng 4 3.8 21:43:33 10° N 21:47:59 77° WNW 21:52:23 10° SSW
COS B Rocket 3.5 21:43:57 10° N 21:48:08 52° E 21:50:52 18° SSE
Cosmos 1975 Rocket 4.3 21:44:47 10° NNE 21:48:23 25° ENE 21:50:14 19° ESE
Cosmos 1606 3.0 21:48:17 10° N 21:52:08 50° E 21:54:20 23° SE
Okean 3 4.3 21:51:47 10° N 21:55:45 35° ENE 21:57:39 23° SE
Cosmos 1908 Rocket 3.6 21:53:55 14° S 21:57:35 60° E 22:01:57 10° NNE
Meteor 2-10 Rocket 4.5 21:52:27 10° NNW 21:58:06 54° W 22:03:39 10° S
Cosmos 1624 Rocket 4.4 21:52:55 10° SSW 21:58:09 69° WNW 22:03:28 10° NNE
NOSS 2-2 (C) 3.8 21:54:32 10° SW 21:58:38 72° NW 22:03:24 10° NNE
H-2A R/B 3.4 21:56:03 17° ESE 21:58:52 26° ENE 22:03:14 10° NNE
Envisat 3.4 21:54:11 10° S 21:59:12 61° W 22:04:15 10° NNW
USA 245 3.4 21:58:30 30° ESE 21:59:28 41° ENE 22:02:49 10° N
Cosmos 1892 4.2 21:55:56 10° SSW 21:59:30 37° WNW 22:03:06 10° N
Cosmos 1242 Rocket 4.1 21:59:41 10° NNE 22:02:32 21° ENE 22:03:15 20° E
Cosmos 1733 Rocket 4.0 21:59:27 10° SSW 22:03:45 49° W 22:08:03 10° N
Cosmos 1378 Rocket 3.6 22:01:37 10° N 22:05:54 60° E 22:08:06 27° SSE
Meteor 2-6 Rocket 4.5 22:00:27 10° NNW 22:06:25 76° W 22:11:37 13° S
MINOTAUR IV R/B 4.5 22:03:16 10° SSW 22:07:42 72° ESE 22:12:11 10° NNE
CZ-4 SHROUD 3.3 22:08:17 30° S 22:09:40 71° WSW 22:12:46 10° NNW
Intercosmos 25 3.9 22:12:07 32° ESE 22:12:47 34° E 22:15:49 10° NNE
SPOT 1/Viking Rocket 3.5 22:10:27 24° SSE 22:13:39 74° ENE 22:18:51 10° N
ERBS 2.8 22:12:11 10° NW 22:15:34 52° SW 22:16:36 36° S
Cosmos 407 Rocket 3.6 22:13:26 10° NNW 22:18:42 78° WSW 22:21:52 25° S
Cosmos 1238 Rocket 2.2 22:18:06 10° N 22:21:11 79° E 22:21:59 48° SSE
Cosmos 1452 Rocket 3.4 22:16:40 10° SSW 22:21:54 77° ESE 22:27:12 10° NNE
Landsat 7 4.3 22:21:42 31° ESE 22:23:29 46° ENE 22:28:02 10° N
SPOT 5 3.8 22:19:21 14° S 22:23:38 51° W 22:28:51 10° NNW
COSMOS 2406 4.2 22:21:31 10° NW 22:26:55 42° WSW 22:30:59 17° S
H-2A R/B 3.9 22:24:28 10° SSW 22:28:09 26° W 22:31:46 10° NW
BREEZE-M TANK 4.2 22:15:50 10° W 22:32:04 62° N 22:35:56 10° ENE
Cosmos 2084 3.2 22:32:18 51° ESE 22:32:18 51° ESE 22:36:01 10° NE
Cosmos 2218 Rocket 4.3 22:32:39 30° SSE 22:35:28 50° E 22:41:37 10° NNE
Cosmos 1140 Rocket 3.7 22:30:47 10° N 22:35:52 56° ENE 22:37:36 38° SE
Cosmos 1862 3.9 22:33:23 18° SSW 22:36:11 55° W 22:40:13 10° N
Nadezhda 3 Rocket 4.4 22:30:52 10° NNW 22:37:08 65° W 22:41:45 19° S
Terra 2.3 22:37:59 37° ESE 22:39:14 46° ENE 22:43:47 10° N
ARGOS 3.2 22:38:34 29° S 22:41:21 73° WSW 22:46:43 10° NNW
DMSP B5D2-2 4.4 22:37:04 10° NNE 22:42:04 45° E 22:43:07 40° SE
ATLAS 5 CENTAUR R/B 3.4 22:37:50 10° NW 22:43:25 38° WSW 22:46:55 22° SSW
DELTA 2 DEB (DPAF) 4.1 22:42:46 48° SE 22:43:56 72° ENE 22:48:23 10° N
Okean 2 Rocket 3.0 22:42:45 35° SSW 22:44:34 84° W 22:49:01 10° N
Cosmos 2278 Rocket 2.1 22:43:31 15° SSW 22:48:20 89° ESE 22:54:03 10° NNE
USA 234 3.1 22:42:21 10° NE 22:48:55 77° SE 22:55:26 10° SW
Cosmos 1844 4.3 22:45:09 10° SW 22:50:49 59° WNW 22:56:34 10° NNE
CZ-4B R/B 4.0 22:46:03 10° N 22:50:57 56° WNW 22:54:54 15° SW
Cosmos 2341 Rocket 4.5 22:46:29 12° SSW 22:52:20 60° W 22:58:33 10° N
Cosmos 1727 Rocket 4.3 22:47:35 10° N 22:53:36 51° ENE 22:55:26 39° SE
CZ-4C R/B 3.1 22:54:26 73° S 22:54:47 87° WSW 22:58:46 10° NNW
Cosmos 1833 Rocket 3.7 22:50:29 10° N 22:55:33 33° ENE 22:57:19 28° E
Cosmos 1850 Rocket 4.1 22:50:44 10° NNW 22:56:01 65° ENE 22:57:23 47° SE
Cosmos 1825 3.7 22:54:31 19° SW 22:56:41 34° WNW 23:00:12 10° N
Cosmos 1959 Rocket 4.3 22:58:49 37° S 23:01:24 80° E 23:07:31 10° N
Cosmos 1844 Rocket 4.2 22:57:02 10° SW 23:02:12 36° WNW 23:07:24 10° N
Timation 2 Rocket 3.8 22:57:28 10° NNW 23:03:31 80° ENE 23:05:20 47° SE
Cosmos 1184 Rocket 4.4 23:04:01 27° WSW 23:04:52 31° WNW 23:07:54 10° NNW
Cosmos 1812 4.0 23:01:58 10° NNE 23:04:51 29° ENE 23:04:51 29° ENE
Cosmos 2082 Rocket 2.6 23:02:38 10° NNW 23:08:14 52° ENE 23:09:37 42° ESE
COSMOS 2487 3.6 23:10:30 10° NW 23:13:44 38° W 23:13:44 38° W
Cosmos 1741 Rocket 3.9 23:08:39 10° NNW 23:13:55 89° ENE 23:14:51 62° SSE
IGS 5A 3.4 23:17:59 75° WSW 23:18:04 75° WSW 23:22:15 10° NNW
Cosmos 2297 3.6 23:16:56 48° S 23:18:35 80° ESE 23:24:20 10° NNE
DNEPR-1 R/B 3.6 23:14:48 10° NNW 23:20:13 89° SW 23:20:38 75° SSE
SL-8 Rocket 4.4 23:17:09 26° SSW 23:20:42 61° W 23:26:55 10° N
APEX 3.4 23:22:48 77° WNW 23:22:48 77° WNW 23:27:35 10° NNE
Cosmos 1339 Rocket 4.4 23:17:49 10° N 23:23:58 73° E 23:25:21 54° SSE
CARTOSAT-1 4.0 23:27:44 49° WSW 23:27:59 50° W 23:32:12 10° NNW
USA 229 DEB 3.9 23:26:24 10° NNW 23:33:30 67° NE 23:35:48 44° ESE
USA 229 3.9 23:26:30 10° NNW 23:33:36 67° NE 23:35:55 44° ESE
Cosmos 1110 Rocket 4.2 23:36:09 54° E 23:36:09 54° E 23:40:50 10° NNE
H-2A R/B 2.9 23:36:42 36° SW 23:38:02 43° W 23:43:08 10° NNW
Cosmos 1536 Rocket 3.8 23:34:39 10° NNW 23:39:02 62° W 23:39:02 62° W
Meteor 2-19 Rocket 4.4 23:37:44 53° SSW 23:39:18 83° W 23:45:28 10° N
Okean 1 3.9 23:35:28 10° N 23:38:43 53° NNE 23:38:43 53° NNE
Spot 2 4.4 23:41:05 10° N 23:45:28 60° WNW 23:45:29 60° WNW
Iridium 4 Rocket 4.1 23:43:39 10° N 23:49:18 49° E 23:49:35 49° E
Cosmos 1934 Rocket 4.4 23:52:21 42° E 23:52:26 42° E 23:58:04 10° NNE
